Time,TemperatureF,DewpointF,PressureIn,WindDirection,WindDirectionDegrees,WindSpeedMPH,WindSpeedGustMPH,Humidity,HourlyPrecipIn,Conditions,Clouds,dailyrainin,SoftwareType,DateUTC
2013-09-02 00:02:00,68.5,60.3,29.88,NNW,335,0.9,3.5,75,0.00,OVC,FEW,0.00,WeatherDisplay:10.37,2013-09-02 05:02:00,
2013-09-02 00:07:00,68.3,60.1,29.88,NW,309,0.5,1.2,75,0.00,OVC,FEW,0.00,WeatherDisplay:10.37,2013-09-02 05:07:00,
2013-09-02 00:12:00,68.0,60.2,29.88,NW,309,0.9,2.3,76,0.00,OVC,FEW,0.00,WeatherDisplay:10.37,2013-09-02 05:12:00,
2013-09-02 00:17:00,67.8,60.0,29.89,NW,310,1.4,3.5,76,0.00,OVC,FEW,0.00,WeatherDisplay:10.37,2013-09-02 05:17:00,
2013-09-02 00:22:00,67.6,60.1,29.88,NW,306,1.6,2.3,77,0.00,OVC,FEW,0.00,WeatherDisplay:10.37,2013-09-02 05:22:00,
2013-09-02 00:27:00,67.4,59.9,29.88,NW,321,0.6,2.3,77,0.00,OVC,FEW,0.00,WeatherDisplay:10.37,2013-09-02 05:27:00,
2013-09-02 00:32:00,67.2,60.1,29.88,WNW,298,1.2,3.5,78,0.00,OVC,FEW,0.00,WeatherDisplay:10.37,2013-09-02 05:32:00,
2013-09-02 00:37:00,67.0,59.9,29.88,NW,308,0.6,3.5,78,0.00,OVC,FEW,0.00,WeatherDisplay:10.37,2013-09-02 05:37:00,
2013-09-02 00:42:00,66.8,60.1,29.88,NW,309,1.4,2.3,79,0.00,OVC,FEW,0.00,WeatherDisplay:10.37,2013-09-02 05:42:00,
2013-09-02 00:47:00,66.8,60.1,29.88,WNW,293,1.7,3.5,79,0.00,OVC,FEW,0.00,WeatherDisplay:10.37,2013-09-02 05:47:00,
2013-09-02 00:52:00,66.7,60.0,29.88,NW,319,1.1,3.5,79,0.00,OVC,FEW,0.00,WeatherDisplay:10.37,2013-09-02 05:52:00,
2013-09-02 00:57:00,66.5,59.8,29.88,NW,316,1.5,3.5,79,0.00,OVC,FEW,0.00,WeatherDisplay:10.37,2013-09-02 05:57:00,
2013-09-02 01:02:00,66.4,60.0,29.88,NW,317,0.9,3.5,80,0.00,OVC,FEW,0.00,WeatherDisplay:10.37,2013-09-02 06:02:00,
2013-09-02 01:07:00,66.3,59.9,29.89,NNW,335,2.3,3.5,80,0.00,OVC,FEW,0.00,WeatherDisplay:10.37,2013-09-02 06:07:00,
2013-09-02 01:12:00,66.2,59.8,29.88,NW,317,2.2,4.0,80,0.00,OVC,FEW,0.00,WeatherDisplay:10.37,2013-09-02 06:12:00,
2013-09-02 01:17:00,66.1,59.7,29.89,NW,319,1.9,3.5,80,0.00,OVC,FEW,0.00,WeatherDisplay:10.37,2013-09-02 06:17:00,
2013-09-02 01:22:00,66.1,59.7,29.88,NW,316,1.7,4.0,80,0.00,OVC,FEW,0.00,WeatherDisplay:10.37,2013-09-02 06:22:00,
2013-09-02 01:27:00,66.0,60.0,29.89,North,5,1.9,3.5,81,0.00,OVC,FEW,0.00,WeatherDisplay:10.37,2013-09-02 06:27:00,
2013-09-02 01:32:00,66.0,60.0,29.88,North,5,2.3,4.6,81,0.00,OVC,FEW,0.00,WeatherDisplay:10.37,2013-09-02 06:32:00,
2013-09-02 01:37:00,65.9,59.9,29.88,NW,317,2.2,4.6,81,0.00,OVC,FEW,0.00,WeatherDisplay:10.37,2013-09-02 06:37:00,
2013-09-02 01:42:00,65.9,59.9,29.88,North,360,1.7,3.5,81,0.00,OVC,FEW,0.00,WeatherDisplay:10.37,2013-09-02 06:42:00,
2013-09-02 01:47:00,65.8,59.8,29.88,NW,312,2.4,3.5,81,0.00,OVC,FEW,0.00,WeatherDisplay:10.37,2013-09-02 06:47:00,
2013-09-02 01:52:00,65.7,59.7,29.88,NNW,327,1.6,3.5,81,0.00,OVC,FEW,0.00,WeatherDisplay:10.37,2013-09-02 06:52:00,
2013-09-02 01:57:00,65.6,59.6,29.88,NW,311,1.8,3.5,81,0.00,OVC,FEW,0.00,WeatherDisplay:10.37,2013-09-02 06:57:00,
2013-09-02 02:02:00,65.5,59.5,29.88,NW,325,1.5,3.5,81,0.00,OVC,FEW,0.00,WeatherDisplay:10.37,2013-09-02 07:02:00,
2013-09-02 02:07:00,65.4,59.4,29.88,WNW,303,2.6,3.5,81,0.00,OVC,FEW,0.00,WeatherDisplay:10.37,2013-09-02 07:07:00,
2013-09-02 02:12:00,65.4,59.8,29.89,NW,306,2.9,8.0,82,0.00,OVC,FEW,0.00,WeatherDisplay:10.37,2013-09-02 07:12:00,
2013-09-02 02:17:00,65.3,59.7,29.89,NW,309,1.5,3.5,82,0.00,OVC,FEW,0.00,WeatherDisplay:10.37,2013-09-02 07:17:00,
2013-09-02 02:22:00,65.1,59.5,29.88,NW,326,2.2,4.6,82,0.00,OVC,FEW,0.00,WeatherDisplay:10.37,2013-09-02 07:22:00,
2013-09-02 02:27:00,64.9,59.6,29.88,NW,313,1.8,3.5,83,0.00,OVC,FEW,0.00,WeatherDisplay:10.37,2013-09-02 07:27:00,
2013-09-02 02:32:00,64.8,59.5,29.88,NW,313,1.8,3.5,83,0.00,OVC,FEW,0.00,WeatherDisplay:10.37,2013-09-02 07:32:00,
2013-09-02 02:37:00,64.7,59.4,29.88,NNW,333,2.5,8.1,83,0.00,OVC,FEW,0.00,WeatherDisplay:10.37,2013-09-02 07:37:00,
2013-09-02 02:42:00,64.6,59.3,29.88,NW,325,2.2,3.5,83,0.00,OVC,FEW,0.00,WeatherDisplay:10.37,2013-09-02 07:42:00,
2013-09-02 02:47:00,64.5,59.6,29.88,NW,305,2.2,9.2,84,0.00,OVC,FEW,0.00,WeatherDisplay:10.37,2013-09-02 07:47:00,
2013-09-02 02:52:00,64.4,59.5,29.89,NNW,336,1.8,3.5,84,0.00,OVC,FEW,0.00,WeatherDisplay:10.37,2013-09-02 07:52:00,
2013-09-02 02:57:00,64.4,59.5,29.89,WNW,301,2.0,3.5,84,0.00,OVC,FEW,0.00,WeatherDisplay:10.37,2013-09-02 07:57:00,
2013-09-02 03:02:00,64.3,59.4,29.89,NW,306,2.1,5.0,84,0.00,OVC,FEW,0.00,WeatherDisplay:10.37,2013-09-02 08:02:00,
2013-09-02 03:07:00,64.3,59.4,29.89,NW,310,2.2,3.5,84,0.00,OVC,FEW,0.00,WeatherDisplay:10.37,2013-09-02 08:07:00,
2013-09-02 03:12:00,64.1,59.2,29.89,NW,318,1.9,5.8,84,0.00,OVC,FEW,0.00,WeatherDisplay:10.37,2013-09-02 08:12:00,
2013-09-02 03:17:00,64.0,59.1,29.89,NW,314,1.9,3.5,84,0.00,OVC,FEW,0.00,WeatherDisplay:10.37,2013-09-02 08:17:00,
2013-09-02 03:22:00,63.9,59.3,29.89,NW,319,1.4,3.5,85,0.00,OVC,FEW,0.00,WeatherDisplay:10.37,2013-09-02 08:22:00,
2013-09-02 03:27:00,63.8,59.2,29.89,NW,304,2.1,3.5,85,0.00,OVC,FEW,0.00,WeatherDisplay:10.37,2013-09-02 08:27:00,
2013-09-02 03:32:00,63.7,59.1,29.89,NW,318,2.3,3.5,85,0.00,OVC,FEW,0.00,WeatherDisplay:10.37,2013-09-02 08:32:00,
2013-09-02 03:37:00,63.6,59.0,29.89,NW,314,2.0,3.0,85,0.00,OVC,FEW,0.00,WeatherDisplay:10.37,2013-09-02 08:37:00,
2013-09-02 03:42:00,63.6,59.0,29.89,NNW,327,1.8,3.5,85,0.00,OVC,FEW,0.00,WeatherDisplay:10.37,2013-09-02 08:42:00,
2013-09-02 03:47:00,63.5,59.2,29.89,NW,309,1.8,3.5,86,0.00,OVC,FEW,0.00,WeatherDisplay:10.37,2013-09-02 08:47:00,
2013-09-02 03:52:00,63.4,59.1,29.89,WNW,302,2.3,3.5,86,0.00,OVC,FEW,0.00,WeatherDisplay:10.37,2013-09-02 08:52:00,
2013-09-02 03:57:00,63.2,58.9,29.90,NW,317,2.0,3.5,86,0.00,OVC,FEW,0.00,WeatherDisplay:10.37,2013-09-02 08:57:00,
2013-09-02 04:02:00,63.2,58.9,29.90,NW,305,1.1,3.5,86,0.00,OVC,FEW,0.00,WeatherDisplay:10.37,2013-09-02 09:02:00,
2013-09-02 04:07:00,63.1,58.8,29.89,NW,309,1.8,3.0,86,0.00,OVC,FEW,0.00,WeatherDisplay:10.37,2013-09-02 09:07:00,
2013-09-02 04:12:00,63.1,58.8,29.90,North,11,1.1,2.3,86,0.00,OVC,FEW,0.00,WeatherDisplay:10.37,2013-09-02 09:12:00,
2013-09-02 04:17:00,63.0,59.1,29.90,NW,316,2.4,3.5,87,0.00,OVC,FEW,0.00,WeatherDisplay:10.37,2013-09-02 09:17:00,
2013-09-02 04:22:00,62.9,59.0,29.90,NW,319,1.4,3.5,87,0.00,OVC,FEW,0.00,WeatherDisplay:10.37,2013-09-02 09:22:00,
2013-09-02 04:27:00,62.9,59.0,29.90,NW,317,1.1,2.3,87,0.00,OVC,FEW,0.00,WeatherDisplay:10.37,2013-09-02 09:27:00,
2013-09-02 04:32:00,62.8,58.9,29.90,NW,314,1.7,3.5,87,0.00,OVC,FEW,0.00,WeatherDisplay:10.37,2013-09-02 09:32:00,
2013-09-02 04:37:00,62.8,58.9,29.90,NNW,342,1.7,3.5,87,0.00,OVC,FEW,0.00,WeatherDisplay:10.37,2013-09-02 09:37:00,
2013-09-02 04:42:00,62.8,58.9,29.90,NW,312,1.6,2.3,87,0.00,OVC,FEW,0.00,WeatherDisplay:10.37,2013-09-02 09:42:00,
2013-09-02 04:47:00,62.8,58.9,29.90,NNW,336,1.6,3.5,87,0.00,OVC,FEW,0.00,WeatherDisplay:10.37,2013-09-02 09:47:00,
2013-09-02 04:52:00,62.8,58.9,29.91,North,350,1.8,3.5,87,0.00,OVC,FEW,0.00,WeatherDisplay:10.37,2013-09-02 09:52:00,
2013-09-02 04:57:00,62.8,58.9,29.90,NW,321,1.3,2.3,87,0.00,OVC,FEW,0.00,WeatherDisplay:10.37,2013-09-02 09:57:00,
2013-09-02 05:02:00,62.8,59.2,29.91,North,9,2.2,3.5,88,0.00,OVC,FEW,0.00,WeatherDisplay:10.37,2013-09-02 10:02:00,
2013-09-02 05:07:00,62.7,58.8,29.91,NNW,340,1.1,2.3,87,0.00,OVC,FEW,0.00,WeatherDisplay:10.37,2013-09-02 10:07:00,
2013-09-02 05:12:00,62.6,58.7,29.91,NW,305,1.5,3.5,87,0.00,OVC,FEW,0.00,WeatherDisplay:10.37,2013-09-02 10:12:00,
2013-09-02 05:17:00,62.5,58.9,29.92,NW,321,1.2,3.0,88,0.00,OVC,FEW,0.00,WeatherDisplay:10.37,2013-09-02 10:17:00,
2013-09-02 05:22:00,62.5,58.9,29.92,North,5,2.2,3.5,88,0.00,OVC,FEW,0.00,WeatherDisplay:10.37,2013-09-02 10:22:00,
2013-09-02 05:27:00,62.4,58.8,29.92,NNW,328,1.2,2.3,88,0.00,OVC,FEW,0.00,WeatherDisplay:10.37,2013-09-02 10:27:00,
2013-09-02 05:32:00,62.3,58.7,29.92,NW,317,0.6,3.5,88,0.00,OVC,FEW,0.00,WeatherDisplay:10.37,2013-09-02 10:32:00,
2013-09-02 05:37:00,62.2,58.6,29.92,North,350,2.0,3.5,88,0.00,OVC,FEW,0.00,WeatherDisplay:10.37,2013-09-02 10:37:00,
2013-09-02 05:42:00,62.0,58.4,29.92,NW,311,1.5,4.0,88,0.00,OVC,FEW,0.00,WeatherDisplay:10.37,2013-09-02 10:42:00,
2013-09-02 05:47:00,61.9,58.6,29.93,NNW,329,0.9,2.3,89,0.00,OVC,FEW,0.00,WeatherDisplay:10.37,2013-09-02 10:47:00,
2013-09-02 05:52:00,61.8,58.5,29.93,NW,322,1.1,3.5,89,0.00,OVC,FEW,0.00,WeatherDisplay:10.37,2013-09-02 10:52:00,
2013-09-02 05:57:00,61.7,58.4,29.93,NW,318,1.8,3.5,89,0.00,OVC,FEW,0.00,WeatherDisplay:10.37,2013-09-02 10:57:00,
2013-09-02 06:02:00,61.6,58.3,29.93,NNW,338,1.3,3.5,89,0.00,OVC,FEW,0.00,WeatherDisplay:10.37,2013-09-02 11:02:00,
2013-09-02 06:07:00,61.5,58.2,29.93,North,9,1.2,2.3,89,0.00,OVC,FEW,0.00,WeatherDisplay:10.37,2013-09-02 11:07:00,
2013-09-02 06:12:00,61.5,58.5,29.93,NNW,333,1.1,2.3,90,0.00,OVC,FEW,0.00,WeatherDisplay:10.37,2013-09-02 11:12:00,
2013-09-02 06:17:00,61.4,58.4,29.93,NW,309,1.3,4.0,90,0.00,OVC,FEW,0.00,WeatherDisplay:10.37,2013-09-02 11:17:00,
2013-09-02 06:22:00,61.4,58.4,29.93,NW,319,1.3,3.5,90,0.00,OVC,FEW,0.00,WeatherDisplay:10.37,2013-09-02 11:22:00,
2013-09-02 06:27:00,61.3,58.3,29.93,NW,309,1.8,3.5,90,0.00,OVC,FEW,0.00,WeatherDisplay:10.37,2013-09-02 11:27:00,
2013-09-02 06:32:00,61.4,58.4,29.93,NNW,340,1.8,3.5,90,0.00,OVC,FEW,0.00,WeatherDisplay:10.37,2013-09-02 11:32:00,
2013-09-02 06:37:00,61.4,58.4,29.94,NNW,345,1.5,3.5,90,0.00,OVC,FEW,0.00,WeatherDisplay:10.37,2013-09-02 11:37:00,
2013-09-02 06:42:00,61.4,58.4,29.94,NW,317,2.2,3.5,90,0.00,OVC,FEW,0.00,WeatherDisplay:10.37,2013-09-02 11:42:00,
2013-09-02 06:47:00,61.4,58.4,29.94,North,351,2.1,3.5,90,0.00,OVC,FEW,0.00,WeatherDisplay:10.37,2013-09-02 11:47:00,
2013-09-02 06:52:00,61.5,58.5,29.94,NNW,336,1.8,3.5,90,0.00,OVC,FEW,0.00,WeatherDisplay:10.37,2013-09-02 11:52:00,
2013-09-02 06:57:00,61.5,58.5,29.94,NW,313,1.7,3.5,90,0.00,OVC,FEW,0.00,WeatherDisplay:10.37,2013-09-02 11:57:00,
2013-09-02 07:02:00,61.5,58.5,29.94,NNW,338,2.3,4.6,90,0.00,OVC,FEW,0.00,WeatherDisplay:10.37,2013-09-02 12:02:00,
2013-09-02 07:07:00,61.6,58.3,29.95,NW,310,2.5,3.5,89,0.00,OVC,FEW,0.00,WeatherDisplay:10.37,2013-09-02 12:07:00,
2013-09-02 07:12:00,61.7,58.4,29.95,NW,325,3.8,7.0,89,0.00,OVC,FEW,0.00,WeatherDisplay:10.37,2013-09-02 12:12:00,
2013-09-02 07:17:00,61.7,58.4,29.95,NNW,348,3.8,9.0,89,0.00,OVC,FEW,0.00,WeatherDisplay:10.37,2013-09-02 12:17:00,
2013-09-02 07:22:00,61.9,58.6,29.95,NNW,329,3.6,8.0,89,0.00,OVC,FEW,0.00,WeatherDisplay:10.37,2013-09-02 12:22:00,
2013-09-02 07:28:00,62.0,58.7,29.95,North,11,1.4,2.3,89,0.00,OVC,FEW,0.00,WeatherDisplay:10.37,2013-09-02 12:28:00,
2013-09-02 07:33:00,62.2,58.6,29.95,NNW,332,2.7,4.6,88,0.00,OVC,FEW,0.00,WeatherDisplay:10.37,2013-09-02 12:33:00,
2013-09-02 07:38:00,62.3,58.7,29.95,North,360,3.9,6.9,88,0.00,OVC,FEW,0.00,WeatherDisplay:10.37,2013-09-02 12:38:00,
2013-09-02 07:43:00,62.3,58.7,29.96,North,360,3.2,5.0,88,0.00,OVC,FEW,0.00,WeatherDisplay:10.37,2013-09-02 12:43:00,
2013-09-02 07:48:00,62.5,58.9,29.96,North,351,2.9,4.0,88,0.00,OVC,FEW,0.00,WeatherDisplay:10.37,2013-09-02 12:48:00,
2013-09-02 07:53:00,62.5,58.9,29.96,NE,53,4.3,8.1,88,0.00,OVC,FEW,0.00,WeatherDisplay:10.37,2013-09-02 12:53:00,
2013-09-02 07:58:00,62.6,58.7,29.96,NW,306,2.8,4.0,87,0.00,OVC,FEW,0.00,WeatherDisplay:10.37,2013-09-02 12:58:00,
2013-09-02 08:03:00,62.7,59.1,29.96,NNW,328,1.8,3.5,88,0.00,OVC,FEW,0.00,WeatherDisplay:10.37,2013-09-02 13:03:00,
2013-09-02 08:08:00,63.0,59.4,29.97,North,349,3.1,9.0,88,0.00,OVC,FEW,0.00,WeatherDisplay:10.37,2013-09-02 13:08:00,
2013-09-02 08:13:00,63.4,59.5,29.97,NW,317,2.6,4.6,87,0.00,OVC,FEW,0.00,WeatherDisplay:10.37,2013-09-02 13:13:00,
2013-09-02 08:18:00,63.6,59.3,29.97,NNE,32,2.7,4.6,86,0.00,OVC,FEW,0.00,WeatherDisplay:10.37,2013-09-02 13:18:00,
2013-09-02 08:23:00,63.7,59.4,29.97,NW,319,2.1,3.5,86,0.00,OVC,FEW,0.00,WeatherDisplay:10.37,2013-09-02 13:23:00,
2013-09-02 08:28:00,63.9,59.6,29.97,NNW,348,3.2,5.0,86,0.00,OVC,FEW,0.00,WeatherDisplay:10.37,2013-09-02 13:28:00,
2013-09-02 08:33:00,64.2,59.6,29.97,NW,315,2.6,5.8,85,0.00,OVC,FEW,0.00,WeatherDisplay:10.37,2013-09-02 13:33:00,
2013-09-02 08:38:00,64.5,59.9,29.97,North,355,5.5,9.2,85,0.00,OVC,FEW,0.00,WeatherDisplay:10.37,2013-09-02 13:38:00,
2013-09-02 08:43:00,64.9,59.9,29.97,WNW,291,2.7,3.5,84,0.00,OVC,FEW,0.00,WeatherDisplay:10.37,2013-09-02 13:43:00,
2013-09-02 08:48:00,65.2,60.2,29.97,North,5,3.6,9.0,84,0.00,OVC,FEW,0.00,WeatherDisplay:10.37,2013-09-02 13:48:00,
2013-09-02 08:53:00,65.5,59.9,29.97,WNW,300,4.3,7.0,82,0.00,OVC,FEW,0.00,WeatherDisplay:10.37,2013-09-02 13:53:00,
2013-09-02 08:58:00,65.8,60.5,29.97,NNW,336,2.2,4.6,83,0.00,OVC,FEW,0.00,WeatherDisplay:10.37,2013-09-02 13:58:00,
2013-09-02 09:03:00,66.1,60.1,29.98,NNW,330,3.7,6.9,81,0.00,OVC,FEW,0.00,WeatherDisplay:10.37,2013-09-02 14:03:00,
2013-09-02 09:08:00,66.3,59.9,29.98,North,360,4.2,10.4,80,0.00,OVC,FEW,0.00,WeatherDisplay:10.37,2013-09-02 14:08:00,
2013-09-02 09:13:00,66.3,60.3,29.98,NNW,329,3.6,5.8,81,0.00,OVC,FEW,0.00,WeatherDisplay:10.37,2013-09-02 14:13:00,
2013-09-02 09:18:00,66.6,60.2,29.98,North,360,4.4,9.2,80,0.00,OVC,FEW,0.00,WeatherDisplay:10.37,2013-09-02 14:18:00,
2013-09-02 09:23:00,66.8,60.4,29.98,NW,326,2.8,4.6,80,0.00,OVC,FEW,0.00,WeatherDisplay:10.37,2013-09-02 14:23:00,
2013-09-02 09:28:00,67.1,60.7,29.98,NNE,16,4.5,9.2,80,0.00,OVC,FEW,0.00,WeatherDisplay:10.37,2013-09-02 14:28:00,
2013-09-02 09:33:00,67.5,61.1,29.98,NNW,336,2.0,5.0,80,0.00,OVC,FEW,0.00,WeatherDisplay:10.37,2013-09-02 14:33:00,
2013-09-02 09:38:00,68.0,61.2,29.98,NW,308,2.5,3.5,79,0.00,OVC,FEW,0.00,WeatherDisplay:10.37,2013-09-02 14:38:00,
2013-09-02 09:43:00,68.6,61.1,29.99,NNW,343,2.1,8.1,77,0.00,OVC,FEW,0.00,WeatherDisplay:10.37,2013-09-02 14:43:00,
2013-09-02 09:48:00,68.9,61.4,29.99,NNW,327,1.4,3.5,77,0.00,OVC,FEW,0.00,WeatherDisplay:10.37,2013-09-02 14:48:00,
2013-09-02 09:53:00,69.2,60.9,29.99,NNW,336,3.0,8.1,75,0.00,OVC,FEW,0.00,WeatherDisplay:10.37,2013-09-02 14:53:00,
2013-09-02 09:58:00,69.2,60.9,29.99,NNW,340,2.4,4.6,75,0.00,OVC,FEW,0.00,WeatherDisplay:10.37,2013-09-02 14:58:00,
2013-09-02 10:03:00,69.0,60.7,29.99,North,5,1.0,4.6,75,0.00,OVC,FEW,0.00,WeatherDisplay:10.37,2013-09-02 15:03:00,
2013-09-02 10:08:00,69.4,61.1,29.99,NW,314,2.6,4.0,75,0.00,OVC,FEW,0.00,WeatherDisplay:10.37,2013-09-02 15:08:00,
2013-09-02 10:13:00,69.7,60.3,29.99,NW,321,3.0,4.0,72,0.00,OVC,FEW,0.00,WeatherDisplay:10.37,2013-09-02 15:13:00,
2013-09-02 10:18:00,69.9,60.5,29.99,NNW,347,2.6,3.5,72,0.00,OVC,FEW,0.00,WeatherDisplay:10.37,2013-09-02 15:18:00,
2013-09-02 10:23:00,70.1,60.3,29.99,WNW,296,4.4,5.0,71,0.00,OVC,FEW,0.00,WeatherDisplay:10.37,2013-09-02 15:23:00,
2013-09-02 10:28:00,70.0,59.4,29.99,NNE,16,4.3,9.0,69,0.00,OVC,FEW,0.00,WeatherDisplay:10.37,2013-09-02 15:28:00,
2013-09-02 10:33:00,70.1,59.9,29.99,NNW,348,2.9,5.8,70,0.00,OVC,FEW,0.00,WeatherDisplay:10.37,2013-09-02 15:33:00,
2013-09-02 10:38:00,70.8,59.7,29.99,WNW,302,2.7,8.1,68,0.00,OVC,FEW,0.00,WeatherDisplay:10.37,2013-09-02 15:38:00,
2013-09-02 10:43:00,71.3,59.4,29.99,NW,315,2.6,3.5,66,0.00,OVC,FEW,0.00,WeatherDisplay:10.37,2013-09-02 15:43:00,
2013-09-02 10:48:00,71.6,60.1,29.99,NW,311,3.0,5.8,67,0.00,OVC,FEW,0.00,WeatherDisplay:10.37,2013-09-02 15:48:00,
2013-09-02 10:53:00,72.4,59.5,29.99,NW,325,1.8,3.5,64,0.00,OVC,FEW,0.00,WeatherDisplay:10.37,2013-09-02 15:53:00,
2013-09-02 10:58:00,72.6,60.2,29.99,NNW,342,2.0,4.6,65,0.00,OVC,FEW,0.00,WeatherDisplay:10.37,2013-09-02 15:58:00,
2013-09-02 11:03:00,72.6,58.4,29.99,NNW,348,5.2,10.4,61,0.00,OVC,FEW,0.00,WeatherDisplay:10.37,2013-09-02 16:03:00,
2013-09-02 11:08:00,72.5,59.6,29.99,WNW,283,3.9,5.8,64,0.00,OVC,FEW,0.00,WeatherDisplay:10.37,2013-09-02 16:08:00,
2013-09-02 11:13:00,72.9,59.6,29.98,NNW,331,2.7,4.6,63,0.00,OVC,FEW,0.00,WeatherDisplay:10.37,2013-09-02 16:13:00,
2013-09-02 11:18:00,73.2,59.4,29.98,NW,313,2.5,5.8,62,0.00,OVC,FEW,0.00,WeatherDisplay:10.37,2013-09-02 16:18:00,
2013-09-02 11:23:00,73.9,60.1,29.98,NW,312,0.3,2.3,62,0.00,OVC,FEW,0.00,WeatherDisplay:10.37,2013-09-02 16:23:00,
2013-09-02 11:28:00,74.3,59.5,29.98,ENE,63,2.5,3.5,60,0.00,OVC,FEW,0.00,WeatherDisplay:10.37,2013-09-02 16:28:00,
2013-09-02 11:33:00,74.5,59.7,29.98,NNW,327,2.4,4.0,60,0.00,OVC,FEW,0.00,WeatherDisplay:10.37,2013-09-02 16:33:00,
2013-09-02 11:38:00,75.0,58.2,29.98,NNW,332,4.0,8.1,56,0.00,OVC,FEW,0.00,WeatherDisplay:10.37,2013-09-02 16:38:00,
2013-09-02 11:43:00,74.4,59.1,29.98,NW,311,2.2,10.4,59,0.00,OVC,FEW,0.00,WeatherDisplay:10.37,2013-09-02 16:43:00,
2013-09-02 11:48:00,74.8,58.5,29.98,NNW,327,3.4,5.8,57,0.00,OVC,FEW,0.00,WeatherDisplay:10.37,2013-09-02 16:48:00,
2013-09-02 11:53:00,75.6,59.8,29.99,NNW,338,1.0,2.3,58,0.00,OVC,FEW,0.00,WeatherDisplay:10.37,2013-09-02 16:53:00,
2013-09-02 11:58:00,76.4,59.5,29.98,North,5,2.4,4.0,56,0.00,OVC,FEW,0.00,WeatherDisplay:10.37,2013-09-02 16:58:00,
2013-09-02 12:03:00,75.9,59.1,29.98,NW,319,3.7,6.9,56,0.00,OVC,FEW,0.00,WeatherDisplay:10.37,2013-09-02 17:03:00,
2013-09-02 12:08:00,75.9,58.1,29.98,WNW,300,1.0,2.3,54,0.00,OVC,FEW,0.00,WeatherDisplay:10.37,2013-09-02 17:08:00,
2013-09-02 12:13:00,75.8,58.5,29.99,WNW,284,1.0,2.3,55,0.00,OVC,FEW,0.00,WeatherDisplay:10.37,2013-09-02 17:13:00,
2013-09-02 12:18:00,76.2,58.3,29.98,North,5,2.9,4.6,54,0.00,OVC,FEW,0.00,WeatherDisplay:10.37,2013-09-02 17:18:00,
2013-09-02 12:23:00,75.8,58.0,29.99,WNW,298,2.6,6.9,54,0.00,OVC,FEW,0.00,WeatherDisplay:10.37,2013-09-02 17:23:00,
2013-09-02 12:28:00,75.9,59.6,29.98,West,264,0.7,1.2,57,0.00,OVC,FEW,0.00,WeatherDisplay:10.37,2013-09-02 17:28:00,
2013-09-02 12:33:00,77.3,58.3,29.98,SE,134,1.0,2.3,52,0.00,OVC,FEW,0.00,WeatherDisplay:10.37,2013-09-02 17:33:00,
2013-09-02 12:38:00,78.4,57.7,29.98,NW,306,1.5,4.6,49,0.00,OVC,FEW,0.00,WeatherDisplay:10.37,2013-09-02 17:38:00,
2013-09-02 12:43:00,79.5,57.5,29.98,West,281,2.8,4.6,47,0.00,OVC,FEW,0.00,WeatherDisplay:10.37,2013-09-02 17:43:00,
2013-09-02 12:48:00,79.3,57.9,29.98,WNW,288,1.8,4.0,48,0.00,OVC,FEW,0.00,WeatherDisplay:10.37,2013-09-02 17:48:00,
2013-09-02 12:53:00,78.2,56.9,29.98,WNW,300,3.2,4.6,48,0.00,OVC,FEW,0.00,WeatherDisplay:10.37,2013-09-02 17:53:00,
2013-09-02 12:58:00,77.9,57.2,29.98,NW,321,2.1,3.5,49,0.00,OVC,FEW,0.00,WeatherDisplay:10.37,2013-09-02 17:58:00,
2013-09-02 13:03:00,77.3,56.6,29.98,NW,319,3.6,9.2,49,0.00,OVC,FEW,0.00,WeatherDisplay:10.37,2013-09-02 18:03:00,
2013-09-02 13:08:00,77.3,57.8,29.98,WNW,300,1.8,5.0,51,0.00,OVC,FEW,0.00,WeatherDisplay:10.37,2013-09-02 18:08:00,
2013-09-02 13:13:00,77.7,57.0,29.98,West,263,2.6,3.5,49,0.00,OVC,FEW,0.00,WeatherDisplay:10.37,2013-09-02 18:13:00,
2013-09-02 13:18:00,78.1,56.8,29.98,West,275,1.3,3.5,48,0.00,OVC,FEW,0.00,WeatherDisplay:10.37,2013-09-02 18:18:00,
2013-09-02 13:23:00,78.4,55.9,29.98,NW,310,3.7,11.5,46,0.00,OVC,FEW,0.00,WeatherDisplay:10.37,2013-09-02 18:23:00,
2013-09-02 13:28:00,78.7,56.8,29.98,West,265,2.6,5.8,47,0.00,OVC,FEW,0.00,WeatherDisplay:10.37,2013-09-02 18:28:00,
2013-09-02 13:33:00,78.9,56.4,29.98,WNW,290,2.6,3.5,46,0.00,OVC,FEW,0.00,WeatherDisplay:10.37,2013-09-02 18:33:00,
2013-09-02 13:38:00,77.5,55.1,29.98,ENE,57,4.2,8.1,46,0.00,OVC,FEW,0.00,WeatherDisplay:10.37,2013-09-02 18:38:00,
2013-09-02 13:43:00,76.9,56.3,29.98,SW,230,3.8,5.8,49,0.00,OVC,FEW,0.00,WeatherDisplay:10.37,2013-09-02 18:43:00,
2013-09-02 13:48:00,77.0,55.2,29.98,NNW,333,3.7,9.2,47,0.00,OVC,FEW,0.00,WeatherDisplay:10.37,2013-09-02 18:48:00,
2013-09-02 13:53:00,77.1,55.3,29.98,NNW,329,3.5,5.8,47,0.00,OVC,FEW,0.00,WeatherDisplay:10.37,2013-09-02 18:53:00,
2013-09-02 13:58:00,77.4,56.2,29.98,WNW,298,3.2,8.1,48,0.00,OVC,FEW,0.00,WeatherDisplay:10.37,2013-09-02 18:58:00,
2013-09-02 14:03:00,77.0,55.2,29.98,NW,308,4.8,9.2,47,0.00,OVC,FEW,0.00,WeatherDisplay:10.37,2013-09-02 19:03:00,
2013-09-02 14:08:00,76.9,53.3,29.98,NNW,348,3.7,6.9,44,0.00,OVC,FEW,0.00,WeatherDisplay:10.37,2013-09-02 19:08:00,
2013-09-02 14:13:00,76.9,53.9,29.97,NW,325,2.4,6.0,45,0.00,OVC,FEW,0.00,WeatherDisplay:10.37,2013-09-02 19:13:00,
2013-09-02 14:18:00,76.9,54.5,29.97,North,5,3.4,8.1,46,0.00,OVC,FEW,0.00,WeatherDisplay:10.37,2013-09-02 19:18:00,
2013-09-02 14:23:00,77.3,54.3,29.97,NW,320,4.4,6.9,45,0.00,OVC,FEW,0.00,WeatherDisplay:10.37,2013-09-02 19:23:00,
2013-09-02 14:28:00,77.6,55.2,29.97,North,360,4.0,8.1,46,0.00,OVC,FEW,0.00,WeatherDisplay:10.37,2013-09-02 19:28:00,
2013-09-02 14:33:00,77.6,54.6,29.97,North,5,3.7,8.1,45,0.00,OVC,FEW,0.00,WeatherDisplay:10.37,2013-09-02 19:33:00,
2013-09-02 14:38:00,77.3,53.7,29.97,North,355,4.6,8.1,44,0.00,OVC,FEW,0.00,WeatherDisplay:10.37,2013-09-02 19:38:00,
2013-09-02 14:43:00,76.9,54.5,29.97,North,349,2.6,4.6,46,0.00,OVC,FEW,0.00,WeatherDisplay:10.37,2013-09-02 19:43:00,
2013-09-02 14:48:00,77.5,53.9,29.97,NNW,348,2.8,3.5,44,0.00,OVC,FEW,0.00,WeatherDisplay:10.37,2013-09-02 19:48:00,
2013-09-02 14:53:00,77.8,53.5,29.97,ENE,75,3.9,9.0,43,0.00,OVC,FEW,0.00,WeatherDisplay:10.37,2013-09-02 19:53:00,
2013-09-02 14:58:00,77.8,55.4,29.97,SW,234,2.5,4.6,46,0.00,OVC,FEW,0.00,WeatherDisplay:10.37,2013-09-02 19:58:00,
2013-09-02 15:03:00,78.2,54.5,29.97,North,360,2.4,4.0,44,0.00,OVC,FEW,0.00,WeatherDisplay:10.37,2013-09-02 20:03:00,
2013-09-02 15:08:00,78.2,54.5,29.97,WNW,291,1.2,3.5,44,0.00,OVC,FEW,0.00,WeatherDisplay:10.37,2013-09-02 20:08:00,
2013-09-02 15:13:00,78.8,54.4,29.97,WNW,300,2.6,4.6,43,0.00,OVC,FEW,0.00,WeatherDisplay:10.37,2013-09-02 20:13:00,
2013-09-02 15:18:00,78.4,55.3,29.97,NNW,346,2.4,4.0,45,0.00,OVC,FEW,0.00,WeatherDisplay:10.37,2013-09-02 20:18:00,
2013-09-02 15:23:00,79.2,54.8,29.96,NNW,347,1.7,4.6,43,0.00,OVC,FEW,0.00,WeatherDisplay:10.37,2013-09-02 20:23:00,
2013-09-02 15:28:00,79.6,53.8,29.96,North,11,3.8,8.1,41,0.00,OVC,FEW,0.00,WeatherDisplay:10.37,2013-09-02 20:28:00,
2013-09-02 15:33:00,78.6,54.2,29.96,West,261,2.0,3.5,43,0.00,OVC,FEW,0.00,WeatherDisplay:10.37,2013-09-02 20:33:00,
2013-09-02 15:38:00,78.5,53.5,29.96,WNW,298,3.1,5.0,42,0.00,OVC,FEW,0.00,WeatherDisplay:10.37,2013-09-02 20:38:00,
2013-09-02 15:43:00,78.1,53.1,29.96,NW,306,2.9,4.6,42,0.00,OVC,FEW,0.00,WeatherDisplay:10.37,2013-09-02 20:43:00,
2013-09-02 15:49:00,77.6,53.3,29.96,NW,313,3.1,5.8,43,0.00,OVC,FEW,0.00,WeatherDisplay:10.37,2013-09-02 20:49:00,
2013-09-02 15:54:00,77.4,53.8,29.96,NNW,331,3.3,10.4,44,0.00,OVC,FEW,0.00,WeatherDisplay:10.37,2013-09-02 20:54:00,
2013-09-02 15:59:00,77.1,54.1,29.96,NNW,331,3.0,5.8,45,0.00,OVC,FEW,0.00,WeatherDisplay:10.37,2013-09-02 20:59:00,
2013-09-02 16:04:00,77.4,55.0,29.96,North,360,2.7,4.6,46,0.00,OVC,FEW,0.00,WeatherDisplay:10.37,2013-09-02 21:04:00,
2013-09-02 16:09:00,77.2,54.2,29.96,WNW,298,3.5,4.6,45,0.00,OVC,FEW,0.00,WeatherDisplay:10.37,2013-09-02 21:09:00,
2013-09-02 16:14:00,77.6,53.3,29.96,WNW,291,2.8,4.0,43,0.00,OVC,FEW,0.00,WeatherDisplay:10.37,2013-09-02 21:14:00,
2013-09-02 16:19:00,77.6,54.6,29.96,North,5,2.6,9.0,45,0.00,OVC,FEW,0.00,WeatherDisplay:10.37,2013-09-02 21:19:00,
2013-09-02 16:24:00,77.4,54.4,29.96,NW,315,2.8,5.8,45,0.00,OVC,FEW,0.00,WeatherDisplay:10.37,2013-09-02 21:24:00,
2013-09-02 16:29:00,77.1,54.1,29.96,NNW,344,4.4,10.4,45,0.00,OVC,FEW,0.00,WeatherDisplay:10.37,2013-09-02 21:29:00,
2013-09-02 16:34:00,76.9,53.9,29.95,NNW,340,3.0,3.5,45,0.00,OVC,FEW,0.00,WeatherDisplay:10.37,2013-09-02 21:34:00,
2013-09-02 16:39:00,76.9,53.9,29.95,NNW,328,4.2,8.1,45,0.00,OVC,FEW,0.00,WeatherDisplay:10.37,2013-09-02 21:39:00,
2013-09-02 16:44:00,76.8,53.8,29.95,NW,325,2.0,3.5,45,0.00,OVC,FEW,0.00,WeatherDisplay:10.37,2013-09-02 21:44:00,
2013-09-02 16:49:00,76.8,53.8,29.95,NE,51,3.3,5.8,45,0.00,OVC,FEW,0.00,WeatherDisplay:10.37,2013-09-02 21:49:00,
2013-09-02 16:54:00,76.5,54.2,29.95,WNW,300,4.8,9.2,46,0.00,OVC,FEW,0.00,WeatherDisplay:10.37,2013-09-02 21:54:00,
2013-09-02 16:59:00,76.2,54.5,29.95,NW,304,3.4,10.4,47,0.00,OVC,FEW,0.00,WeatherDisplay:10.37,2013-09-02 21:59:00,
2013-09-02 17:04:00,76.0,54.3,29.96,NW,309,2.7,4.6,47,0.00,OVC,FEW,0.00,WeatherDisplay:10.37,2013-09-02 22:04:00,
2013-09-02 17:09:00,75.8,54.1,29.95,NE,49,1.2,3.0,47,0.00,OVC,FEW,0.00,WeatherDisplay:10.37,2013-09-02 22:09:00,
2013-09-02 17:14:00,75.7,54.6,29.96,North,9,3.1,5.0,48,0.00,OVC,FEW,0.00,WeatherDisplay:10.37,2013-09-02 22:14:00,
2013-09-02 17:19:00,75.6,53.9,29.96,NW,314,3.5,4.6,47,0.00,OVC,FEW,0.00,WeatherDisplay:10.37,2013-09-02 22:19:00,
2013-09-02 17:24:00,75.4,54.9,29.95,NNE,13,0.1,2.3,49,0.00,OVC,FEW,0.00,WeatherDisplay:10.37,2013-09-02 22:24:00,
2013-09-02 17:29:00,75.3,54.3,29.95,North,9,3.7,9.2,48,0.00,OVC,FEW,0.00,WeatherDisplay:10.37,2013-09-02 22:29:00,
2013-09-02 17:34:00,75.1,54.1,29.96,NW,316,3.2,4.6,48,0.00,OVC,FEW,0.00,WeatherDisplay:10.37,2013-09-02 22:34:00,
2013-09-02 17:39:00,74.9,53.9,29.96,NW,318,2.5,3.5,48,0.00,OVC,FEW,0.00,WeatherDisplay:10.37,2013-09-02 22:39:00,
2013-09-02 17:44:00,74.9,54.4,29.96,NNW,348,4.4,5.8,49,0.00,OVC,FEW,0.00,WeatherDisplay:10.37,2013-09-02 22:44:00,
2013-09-02 17:49:00,74.9,53.9,29.96,North,360,2.3,4.6,48,0.00,OVC,FEW,0.00,WeatherDisplay:10.37,2013-09-02 22:49:00,
2013-09-02 17:54:00,74.9,53.9,29.96,NNW,344,4.5,8.0,48,0.00,OVC,FEW,0.00,WeatherDisplay:10.37,2013-09-02 22:54:00,
2013-09-02 17:59:00,74.8,54.4,29.96,NW,321,2.2,5.0,49,0.00,OVC,FEW,0.00,WeatherDisplay:10.37,2013-09-02 22:59:00,
2013-09-02 18:04:00,74.7,54.3,29.96,NE,56,2.1,3.5,49,0.00,OVC,FEW,0.00,WeatherDisplay:10.37,2013-09-02 23:04:00,
2013-09-02 18:09:00,74.6,54.2,29.97,WNW,294,2.5,4.6,49,0.00,OVC,FEW,0.00,WeatherDisplay:10.37,2013-09-02 23:09:00,
2013-09-02 18:14:00,74.5,54.1,29.96,NW,320,2.6,3.5,49,0.00,OVC,FEW,0.00,WeatherDisplay:10.37,2013-09-02 23:14:00,
2013-09-02 18:19:00,74.4,54.5,29.96,NNW,332,1.6,3.5,50,0.00,OVC,FEW,0.00,WeatherDisplay:10.37,2013-09-02 23:19:00,
2013-09-02 18:24:00,74.3,54.5,29.96,NW,325,2.4,4.6,50,0.00,OVC,FEW,0.00,WeatherDisplay:10.37,2013-09-02 23:24:00,
2013-09-02 18:29:00,74.1,54.8,29.96,NNW,328,2.9,4.6,51,0.00,OVC,FEW,0.00,WeatherDisplay:10.37,2013-09-02 23:29:00,
2013-09-02 18:34:00,74.0,54.7,29.96,NW,310,2.7,3.5,51,0.00,OVC,FEW,0.00,WeatherDisplay:10.37,2013-09-02 23:34:00,
2013-09-02 18:39:00,73.8,54.5,29.96,NW,317,2.5,4.6,51,0.00,OVC,FEW,0.00,WeatherDisplay:10.37,2013-09-02 23:39:00,
2013-09-02 18:44:00,73.6,54.4,29.96,NW,308,2.1,4.6,51,0.00,OVC,FEW,0.00,WeatherDisplay:10.37,2013-09-02 23:44:00,
2013-09-02 18:49:00,73.5,54.3,29.96,NNW,343,2.4,3.5,51,0.00,OVC,FEW,0.00,WeatherDisplay:10.37,2013-09-02 23:49:00,
2013-09-02 18:54:00,73.4,54.2,29.96,NNW,348,3.3,5.0,51,0.00,OVC,FEW,0.00,WeatherDisplay:10.37,2013-09-02 23:54:00,
2013-09-02 18:59:00,73.2,54.0,29.96,NNW,344,3.6,6.9,51,0.00,OVC,FEW,0.00,WeatherDisplay:10.37,2013-09-02 23:59:00,
2013-09-02 19:04:00,73.0,54.3,29.96,NNW,336,2.6,5.0,52,0.00,OVC,FEW,0.00,WeatherDisplay:10.37,2013-09-03 00:04:00,
2013-09-02 19:09:00,72.8,54.1,29.96,North,355,3.6,4.6,52,0.00,OVC,FEW,0.00,WeatherDisplay:10.37,2013-09-03 00:09:00,
2013-09-02 19:14:00,72.7,54.6,29.96,North,355,1.6,3.5,53,0.00,OVC,FEW,0.00,WeatherDisplay:10.37,2013-09-03 00:14:00,
2013-09-02 19:19:00,72.5,54.4,29.96,North,5,2.9,4.6,53,0.00,OVC,FEW,0.00,WeatherDisplay:10.37,2013-09-03 00:19:00,
2013-09-02 19:24:00,72.2,54.6,29.97,NNE,32,1.9,4.0,54,0.00,OVC,FEW,0.00,WeatherDisplay:10.37,2013-09-03 00:24:00,
2013-09-02 19:30:00,71.9,54.3,29.97,NNW,345,3.2,5.0,54,0.00,OVC,FEW,0.00,WeatherDisplay:10.37,2013-09-03 00:30:00,
2013-09-02 19:35:00,71.7,54.7,29.97,North,360,2.6,4.0,55,0.00,OVC,FEW,0.00,WeatherDisplay:10.37,2013-09-03 00:35:00,
2013-09-02 19:40:00,71.4,54.4,29.97,NNE,16,1.5,3.5,55,0.00,OVC,FEW,0.00,WeatherDisplay:10.37,2013-09-03 00:40:00,
2013-09-02 19:45:00,71.2,54.7,29.97,NNW,347,1.5,2.3,56,0.00,OVC,FEW,0.00,WeatherDisplay:10.37,2013-09-03 00:45:00,
2013-09-02 19:50:00,71.0,54.5,29.98,NNW,338,1.5,3.5,56,0.00,OVC,FEW,0.00,WeatherDisplay:10.37,2013-09-03 00:50:00,
2013-09-02 19:55:00,70.7,54.7,29.98,NNW,336,2.6,8.0,57,0.00,OVC,FEW,0.00,WeatherDisplay:10.37,2013-09-03 00:55:00,
2013-09-02 20:00:00,70.3,55.3,29.98,NNW,333,2.1,4.0,59,0.00,OVC,FEW,0.00,WeatherDisplay:10.37,2013-09-03 01:00:00,
2013-09-02 20:05:00,69.9,55.4,29.98,NNW,332,4.2,9.2,60,0.00,OVC,FEW,0.00,WeatherDisplay:10.37,2013-09-03 01:05:00,
2013-09-02 20:10:00,69.3,55.7,29.98,NW,324,3.3,5.0,62,0.00,OVC,FEW,0.00,WeatherDisplay:10.37,2013-09-03 01:10:00,
2013-09-02 20:15:00,68.8,56.1,29.99,NNW,333,4.7,9.2,64,0.00,OVC,FEW,0.00,WeatherDisplay:10.37,2013-09-03 01:15:00,
2013-09-02 20:20:00,68.3,56.1,29.99,North,9,5.1,11.5,65,0.00,OVC,FEW,0.00,WeatherDisplay:10.37,2013-09-03 01:20:00,
2013-09-02 20:25:00,67.9,56.1,29.99,NNW,342,5.2,11.5,66,0.00,OVC,FEW,0.00,WeatherDisplay:10.37,2013-09-03 01:25:00,
2013-09-02 20:30:00,67.6,56.2,29.99,NNW,338,4.2,8.1,67,0.00,OVC,FEW,0.00,WeatherDisplay:10.37,2013-09-03 01:30:00,
2013-09-02 20:35:00,67.2,56.3,29.99,NNW,341,2.6,4.6,68,0.00,OVC,FEW,0.00,WeatherDisplay:10.37,2013-09-03 01:35:00,
2013-09-02 20:40:00,66.8,55.9,29.99,WNW,300,3.0,9.0,68,0.00,OVC,FEW,0.00,WeatherDisplay:10.37,2013-09-03 01:40:00,
2013-09-02 20:45:00,66.5,56.0,29.99,NNW,338,4.6,9.2,69,0.00,OVC,FEW,0.00,WeatherDisplay:10.37,2013-09-03 01:45:00,
2013-09-02 20:50:00,66.2,56.1,29.99,NNW,346,1.8,4.6,70,0.00,OVC,FEW,0.00,WeatherDisplay:10.37,2013-09-03 01:50:00,
2013-09-02 20:55:00,65.9,56.2,29.99,North,350,1.9,5.0,71,0.00,OVC,FEW,0.00,WeatherDisplay:10.37,2013-09-03 01:55:00,
2013-09-02 21:00:00,65.5,55.8,30.00,NW,311,3.9,6.0,71,0.00,OVC,FEW,0.00,WeatherDisplay:10.37,2013-09-03 02:00:00,
2013-09-02 21:05:00,65.2,55.9,30.00,NNE,25,1.7,5.8,72,0.00,OVC,FEW,0.00,WeatherDisplay:10.37,2013-09-03 02:05:00,
2013-09-02 21:10:00,65.0,56.1,30.00,NNW,344,1.4,3.5,73,0.00,OVC,FEW,0.00,WeatherDisplay:10.37,2013-09-03 02:10:00,
2013-09-02 21:15:00,64.7,55.8,30.00,NW,322,2.8,3.5,73,0.00,OVC,FEW,0.00,WeatherDisplay:10.37,2013-09-03 02:15:00,
2013-09-02 21:20:00,64.5,56.0,30.00,NNW,332,2.4,8.0,74,0.00,OVC,FEW,0.00,WeatherDisplay:10.37,2013-09-03 02:20:00,
2013-09-02 21:25:00,64.2,55.7,30.00,North,360,3.9,5.0,74,0.00,OVC,FEW,0.00,WeatherDisplay:10.37,2013-09-03 02:25:00,
2013-09-02 21:30:00,63.9,55.8,30.00,North,10,3.2,4.6,75,0.00,OVC,FEW,0.00,WeatherDisplay:10.37,2013-09-03 02:30:00,
2013-09-02 21:35:00,63.6,55.9,30.01,NNE,32,2.8,3.5,76,0.00,OVC,FEW,0.00,WeatherDisplay:10.37,2013-09-03 02:35:00,
2013-09-02 21:40:00,63.4,55.7,30.01,North,360,2.8,4.6,76,0.00,OVC,FEW,0.00,WeatherDisplay:10.37,2013-09-03 02:40:00,
2013-09-02 21:45:00,63.1,55.4,30.01,North,5,2.0,4.0,76,0.00,OVC,FEW,0.00,WeatherDisplay:10.37,2013-09-03 02:45:00,
2013-09-02 21:50:00,62.9,55.6,30.01,NW,316,3.0,5.0,77,0.00,OVC,FEW,0.00,WeatherDisplay:10.37,2013-09-03 02:50:00,
2013-09-02 21:55:00,62.8,55.5,30.01,NW,323,3.1,5.8,77,0.00,OVC,FEW,0.00,WeatherDisplay:10.37,2013-09-03 02:55:00,
2013-09-02 22:00:00,62.5,55.5,30.01,NNE,28,3.2,4.6,78,0.00,OVC,FEW,0.00,WeatherDisplay:10.37,2013-09-03 03:00:00,
2013-09-02 22:05:00,62.3,55.4,30.01,NW,320,2.5,5.8,78,0.00,OVC,FEW,0.00,WeatherDisplay:10.37,2013-09-03 03:05:00,
2013-09-02 22:10:00,62.2,55.3,30.01,North,5,2.7,6.9,78,0.00,OVC,FEW,0.00,WeatherDisplay:10.37,2013-09-03 03:10:00,
2013-09-02 22:15:00,62.0,55.4,30.01,North,11,3.2,4.6,79,0.00,OVC,FEW,0.00,WeatherDisplay:10.37,2013-09-03 03:15:00,
2013-09-02 22:20:00,61.8,55.2,30.01,North,360,3.6,5.8,79,0.00,OVC,FEW,0.00,WeatherDisplay:10.37,2013-09-03 03:20:00,
2013-09-02 22:25:00,61.6,55.0,30.01,North,355,2.5,3.5,79,0.00,OVC,FEW,0.00,WeatherDisplay:10.37,2013-09-03 03:25:00,
2013-09-02 22:30:00,61.5,54.9,30.01,NNW,338,2.1,4.0,79,0.00,OVC,FEW,0.00,WeatherDisplay:10.37,2013-09-03 03:30:00,
2013-09-02 22:35:00,61.4,55.2,30.01,NW,321,1.6,2.3,80,0.00,OVC,FEW,0.00,WeatherDisplay:10.37,2013-09-03 03:35:00,
2013-09-02 22:40:00,61.3,55.1,30.02,North,360,3.1,4.6,80,0.00,OVC,FEW,0.00,WeatherDisplay:10.37,2013-09-03 03:40:00,
2013-09-02 22:45:00,61.3,55.1,30.02,WNW,299,2.4,3.5,80,0.00,OVC,FEW,0.00,WeatherDisplay:10.37,2013-09-03 03:45:00,
2013-09-02 22:50:00,61.2,55.0,30.02,NNW,339,2.2,3.5,80,0.00,OVC,FEW,0.00,WeatherDisplay:10.37,2013-09-03 03:50:00,
2013-09-02 22:55:00,61.1,54.9,30.02,NNW,334,1.8,3.5,80,0.00,OVC,FEW,0.00,WeatherDisplay:10.37,2013-09-03 03:55:00,
2013-09-02 23:00:00,61.0,54.8,30.02,NNW,346,2.6,4.6,80,0.00,OVC,FEW,0.00,WeatherDisplay:10.37,2013-09-03 04:00:00,
2013-09-02 23:01:00,61.0,54.8,30.02,NNW,346,2.2,4.6,80,0.00,OVC,FEW,0.00,WeatherDisplay:10.37,2013-09-03 04:01:00,
2013-09-02 23:02:00,61.0,54.8,30.02,North,5,2.1,4.6,80,0.00,OVC,FEW,0.00,WeatherDisplay:10.37,2013-09-03 04:02:00,
2013-09-02 23:07:00,60.9,54.7,30.02,NNW,344,0.9,2.3,80,0.00,OVC,FEW,0.00,WeatherDisplay:10.37,2013-09-03 04:07:00,
2013-09-02 23:12:00,60.9,54.7,30.02,NNW,344,2.1,3.5,80,0.00,OVC,FEW,0.00,WeatherDisplay:10.37,2013-09-03 04:12:00,
2013-09-02 23:17:00,60.8,54.6,30.02,NW,316,2.3,4.6,80,0.00,OVC,FEW,0.00,WeatherDisplay:10.37,2013-09-03 04:17:00,
2013-09-02 23:22:00,60.7,54.5,30.02,NW,321,3.2,4.6,80,0.00,OVC,FEW,0.00,WeatherDisplay:10.37,2013-09-03 04:22:00,
2013-09-02 23:27:00,60.5,54.3,30.02,NNW,345,2.3,4.0,80,0.00,OVC,FEW,0.00,WeatherDisplay:10.37,2013-09-03 04:27:00,
2013-09-02 23:32:00,60.4,54.2,30.02,NW,325,2.3,5.0,80,0.00,OVC,FEW,0.00,WeatherDisplay:10.37,2013-09-03 04:32:00,
2013-09-02 23:37:00,60.3,54.1,30.02,North,355,1.9,3.5,80,0.00,OVC,FEW,0.00,WeatherDisplay:10.37,2013-09-03 04:37:00,
2013-09-02 23:42:00,60.2,54.0,30.02,NNW,340,2.5,3.5,80,0.00,OVC,FEW,0.00,WeatherDisplay:10.37,2013-09-03 04:42:00,
2013-09-02 23:47:00,60.1,53.9,30.02,NNW,342,2.8,3.5,80,0.00,OVC,FEW,0.00,WeatherDisplay:10.37,2013-09-03 04:47:00,
2013-09-02 23:52:00,60.0,54.2,30.02,NNW,327,0.9,4.0,81,0.00,OVC,FEW,0.00,WeatherDisplay:10.37,2013-09-03 04:52:00,
2013-09-02 23:57:00,59.9,54.1,30.02,North,5,2.6,3.5,81,0.00,OVC,FEW,0.00,WeatherDisplay:10.37,2013-09-03 04:57:00,